This is the latest recevied weather packets stored in our database for station/object DL9GRB-13. If no packets are shown the sender has not sent any weather packets the latest 10 day(s).
| Time | Temp. | Humidity | Pressure | Rain* | Wind** | Luminosity | Snow |
|---|---|---|---|---|---|---|---|
| 1778153288 | 14.44° C | 55% | 1015.4 hPa | 0 mm | - | 802 W/m² | - |
| 1778153109 | 14.44° C | 53% | 1015.4 hPa | 0 mm | - | 804 W/m² | - |
| 1778152929 | 13.89° C | 53% | 1015.4 hPa | 0 mm | - | 806 W/m² | - |
| 1778152749 | 13.89° C | 54% | 1015.4 hPa | 0 mm | - | 806 W/m² | - |
| 1778152569 | 13.89° C | 51% | 1015.3 hPa | 0 mm | - | 809 W/m² | - |
| 1778152389 | 13.89° C | 52% | 1015.4 hPa | 0 mm | - | 808 W/m² | - |
| 1778152208 | 13.89° C | 54% | 1015.4 hPa | 0 mm | - | 807 W/m² | - |
| 1778152028 | 13.89° C | 54% | 1015.3 hPa | 0 mm | - | 808 W/m² | - |
| 1778151849 | 13.33° C | 54% | 1015.3 hPa | 0 mm | - | 807 W/m² | - |
| 1778151669 | 13.33° C | 53% | 1015.3 hPa | 0 mm | - | 807 W/m² | - |
| 1778151489 | 13.33° C | 53% | 1015.4 hPa | 0 mm | - | 806 W/m² | - |
| 1778151309 | 13.33° C | 53% | 1015.4 hPa | 0 mm | - | 804 W/m² | - |
| 1778151129 | 13.33° C | 54% | 1015.4 hPa | 0 mm | - | 803 W/m² | - |
| 1778150948 | 13.33° C | 54% | 1015.3 hPa | 0 mm | - | 801 W/m² | - |
| 1778150769 | 13.33° C | 54% | 1015.2 hPa | 0 mm | - | 798 W/m² | - |
| 1778150588 | 13.33° C | 56% | 1015.4 hPa | 0 mm | - | 799 W/m² | - |
| 1778150408 | 13.33° C | 53% | 1015.3 hPa | 0 mm | - | 626 W/m² | - |
| 1778150229 | 13.33° C | 52% | 1015.3 hPa | 0 mm | - | 790 W/m² | - |
| 1778150048 | 13.33° C | 54% | 1015.4 hPa | 0 mm | - | 788 W/m² | - |
| 1778149869 | 13.33° C | 55% | 1015.2 hPa | 0 mm | - | 785 W/m² | - |
| 1778149688 | 12.78° C | 56% | 1015.4 hPa | 0 mm | - | 778 W/m² | - |
| 1778149508 | 13.33° C | 55% | 1015.2 hPa | 0 mm | - | 774 W/m² | - |
| 1778149328 | 13.33° C | 57% | 1015.3 hPa | 0 mm | - | 768 W/m² | - |
| 1778149148 | 13.33° C | 58% | 1015 hPa | 0 mm | - | 761 W/m² | - |
| 1778148969 | 13.33° C | 59% | 1015.4 hPa | 0 mm | - | 756 W/m² | - |
* Rain latest hour (hover to see other rain measurements)
** Current wind speed in m/s (hover to see current wind gust speed)